Weather History for Kenosha, WI

Change the Weather History Date:

Wednesday, February 6, 2013

  Actual Average Record
Temperature  
Mean Temperature 21 °F -  
Max Temperature 34 °F 27 °F 51 °F (1964)
Min Temperature 8 °F 13 °F -15 °F (1982)
Degree Days  
Heating Degree Days 44    
Moisture  
Dew Point 18 °F    
Average Humidity 72    
Maximum Humidity 88    
Minimum Humidity 56    
Precipitation  
Precipitation 0.00 in - - ()
Sea Level Pressure  
Sea Level Pressure 30.18 in    
Wind  
Wind Speed 3 mph (South)    
Max Wind Speed 10 mph    
Max Gust Speed -    
Visibility 7 miles    
Events      
Averages and records for this station are not official NWS values.
T = Trace of Precipitation, MM = Missing Value Source: NWS Daily Summary

Daily Weather History Graph

Daily Weather History Graph

Search for Another Location

Airport:

Trip Planner

Search our weather history database for the weather conditions in past years. The results will help you decide how hot, cold, wet, or windy it might be!

Date:

Astronomy

Feb. 06, 2013 Rise Set
Actual Time 6:59 AM CST 5:12 PM CST
Civil Twilight 6:30 AM CST 5:41 PM CST
Nautical Twilight 5:57 AM CST 6:15 PM CST
Astronomical Twilight 5:24 AM CST 6:48 PM CST
Moon 3:45 AM CST (2/6) 1:27 PM CST (2/6)
Length of Visible Light 11h 11m
Length of Day
10h 12m
Waning Crescent, 17% of the Moon is Illuminated
Feb 6
Waning Crescent
Feb 10
New
Feb 17
First Quarter
Feb 25
Full
Mar 4
Last Quarter

Hourly Weather History & Observations

Time (CST) Temp. Windchill Dew Point Humidity Pressure Visibility Wind Dir Wind Speed Gust Speed Precip Events Conditions
1:53 AM 21.9 °F - 12.9 °F 68% 30.15 in 10.0 mi Calm Calm - N/A   Overcast
2:53 AM 17.1 °F - 10.0 °F 74% 30.16 in 9.0 mi Calm Calm - N/A   Scattered Clouds
3:53 AM 14.0 °F - 10.0 °F 84% 30.18 in 7.0 mi Calm Calm - N/A   Clear
4:53 AM 9.0 °F 2.4 °F 6.1 °F 88% 30.20 in 4.0 mi West 3.5 mph - N/A   Clear
5:53 AM 10.0 °F 3.6 °F 6.1 °F 84% 30.20 in 4.0 mi WSW 3.5 mph - N/A   Clear
6:53 AM 8.1 °F - 5.0 °F 87% 30.21 in 6.0 mi Calm Calm - N/A   Clear
7:53 AM 8.1 °F - 5.0 °F 87% 30.23 in 8.0 mi Calm Calm - N/A   Clear
9:53 AM 21.0 °F 16.2 °F 12.9 °F 71% 30.24 in 10.0 mi SSE 3.5 mph - N/A   Clear
10:53 AM 26.1 °F 21.9 °F 15.1 °F 63% 30.26 in 10.0 mi SSE 3.5 mph - N/A   Clear
11:53 AM 30.9 °F 25.2 °F 17.1 °F 57% 30.23 in 10.0 mi SSW 5.8 mph - N/A   Clear
12:53 PM 32.0 °F 24.2 °F 19.0 °F 59% 30.21 in 8.0 mi SSW 9.2 mph - N/A   Clear
1:53 PM 34.0 °F 27.2 °F 19.9 °F 56% 30.19 in 8.0 mi SW 8.1 mph - N/A   Partly Cloudy
2:53 PM 34.0 °F 28.0 °F 19.9 °F 56% 30.19 in 8.0 mi SSW 6.9 mph - N/A   Mostly Cloudy
3:53 PM 34.0 °F 28.8 °F 21.0 °F 59% 30.20 in 7.0 mi SW 5.8 mph - N/A   Overcast
4:53 PM 33.1 °F - 21.9 °F 64% 30.19 in 6.0 mi Calm Calm - N/A   Haze
5:53 PM 30.9 °F 24.3 °F 24.1 °F 76% 30.17 in 6.0 mi East 6.9 mph - N/A   Haze
6:53 PM 32.0 °F 26.4 °F 25.0 °F 75% 30.16 in 6.0 mi SE 5.8 mph - N/A   Haze
7:53 PM 34.0 °F 26.6 °F 26.1 °F 73% 30.16 in 6.0 mi SSE 9.2 mph - N/A   Haze
8:53 PM 34.0 °F 27.2 °F 27.0 °F 75% 30.17 in 6.0 mi South 8.1 mph - N/A   Haze
9:53 PM 34.0 °F 27.2 °F 28.0 °F 79% 30.12 in 5.0 mi SSE 8.1 mph - N/A   Haze
10:53 PM 34.0 °F 28.8 °F 27.0 °F 75% 30.12 in 5.0 mi South 5.8 mph - N/A   Haze
11:53 PM 34.0 °F 26.0 °F 27.0 °F 75% 30.12 in 5.0 mi SE 10.4 mph - N/A   Haze